﻿#観測日時,平均風速,平均風向,最大風速,最大風速発生風向,最大瞬間風速,最大瞬間風速発生風向
#(年月日),(m/s)   ,(16方位),(m/s)   ,(16方位)        ,(m/s)       ,(16方位)            
2020/12/25 0:01,0.5,14,0.5,15,0.9,14
2020/12/25 0:02,0.6,14,0.6,15,1.1,15
2020/12/25 0:03,0.6,14,0.6,15,1.3,16
2020/12/25 0:04,0.6,14,0.6,15,0.8,16
2020/12/25 0:05,0.6,14,0.6,15,1.3,15
2020/12/25 0:06,0.7,15,0.7,15,1.4,15
2020/12/25 0:07,0.7,15,0.7,15,2,15
2020/12/25 0:08,0.8,15,0.8,15,1.5,15
2020/12/25 0:09,0.8,15,0.8,15,1.1,1
2020/12/25 0:10,0.8,15,0.8,15,1,15
2020/12/25 0:11,0.8,15,0.8,15,0.9,15
2020/12/25 0:12,0.8,16,0.8,15,0.9,15
2020/12/25 0:13,0.7,15,0.7,15,0.8,16
2020/12/25 0:14,0.8,15,0.8,15,1.3,14
2020/12/25 0:15,0.8,15,0.8,15,1.5,15
2020/12/25 0:16,0.8,15,0.8,15,1.6,14
2020/12/25 0:17,0.8,15,0.8,15,2,14
2020/12/25 0:18,0.8,15,0.8,15,1,15
2020/12/25 0:19,0.8,15,0.8,15,1.4,14
2020/12/25 0:20,0.8,14,0.8,15,2,13
2020/12/25 0:21,0.9,14,0.9,14,1.5,13
2020/12/25 0:22,0.9,14,0.9,14,1.4,14
2020/12/25 0:23,0.9,14,0.9,14,0.8,15
2020/12/25 0:24,0.9,14,0.9,14,1.5,10
2020/12/25 0:25,1,13,1,13,2.4,10
2020/12/25 0:26,0.9,13,1,13,1.3,10
2020/12/25 0:27,0.8,12,0.9,13,0.8,10
2020/12/25 0:28,0.8,12,0.8,13,0.5,9
2020/12/25 0:29,0.7,11,0.8,13,0.3,5
2020/12/25 0:30,0.6,11,0.7,13,0.4,15
2020/12/25 0:31,0.5,11,0.6,13,0.1,3
2020/12/25 0:32,0.4,11,0.5,13,0.4,1
2020/12/25 0:33,0.4,10,0.4,13,0.4,15
2020/12/25 0:34,0.3,11,0.4,13,1,16
2020/12/25 0:35,0.2,15,0.3,13,0.6,16
2020/12/25 0:36,0.2,1,0.2,13,1,5
2020/12/25 0:37,0.2,2,0.2,12,0.4,10
2020/12/25 0:38,0.2,1,0.2,12,1.5,10
2020/12/25 0:39,0.3,16,0.3,11,1,9
2020/12/25 0:40,0.3,15,0.3,11,0.8,11
2020/12/25 0:41,0.3,13,0.3,11,0.6,11
2020/12/25 0:42,0.4,10,0.4,11,1.1,11
2020/12/25 0:43,0.5,10,0.5,10,1.9,10
2020/12/25 0:44,0.6,10,0.6,10,2,10
2020/12/25 0:45,0.7,10,0.7,10,1.8,10
2020/12/25 0:46,0.7,10,0.7,10,0.8,12
2020/12/25 0:47,0.8,10,0.8,10,1.1,10
2020/12/25 0:48,0.7,10,0.8,10,1,11
2020/12/25 0:49,0.7,10,0.7,10,0.8,8
2020/12/25 0:50,0.7,10,0.7,10,0.1,8
2020/12/25 0:51,0.7,10,0.7,10,1.3,10
2020/12/25 0:52,0.7,10,0.7,10,1,8
2020/12/25 0:53,0.6,10,0.7,10,1.4,10
2020/12/25 0:54,0.5,10,0.6,10,1.5,9
2020/12/25 0:55,0.5,10,0.5,10,2,9
2020/12/25 0:56,0.6,10,0.6,10,2.7,10
2020/12/25 0:57,0.6,10,0.6,10,1.8,10
2020/12/25 0:58,0.5,10,0.6,10,0.6,10
2020/12/25 0:59,0.5,10,0.5,10,0.8,9
2020/12/25 1:00,0.6,10,0.6,10,1.8,8
2020/12/25 1:01,0.6,10,0.6,10,1.3,10
2020/12/25 1:02,0.7,10,0.7,10,1.5,10
2020/12/25 1:03,0.7,10,0.7,10,1.4,9
2020/12/25 1:04,0.7,10,0.7,10,0.8,11
2020/12/25 1:05,0.6,10,0.7,10,0.8,10
2020/12/25 1:06,0.6,10,0.6,10,2.5,10
2020/12/25 1:07,0.7,10,0.7,10,2,11
2020/12/25 1:08,0.8,10,0.8,10,2.1,11
2020/12/25 1:09,0.9,10,0.9,10,1.6,11
2020/12/25 1:10,0.9,10,0.9,10,1.4,10
2020/12/25 1:11,1,11,1,10,1.3,9
2020/12/25 1:12,1,11,1,10,0.8,13
2020/12/25 1:13,0.9,11,0.9,10,0.5,11
2020/12/25 1:14,0.9,11,0.9,10,0.8,10
2020/12/25 1:15,0.9,11,0.9,10,0.8,9
2020/12/25 1:16,0.8,11,0.9,10,1.3,11
2020/12/25 1:17,0.8,11,0.8,10,1,11
2020/12/25 1:18,0.6,11,0.7,10,1,10
2020/12/25 1:19,0.6,11,0.6,10,1.1,11
2020/12/25 1:20,0.6,11,0.6,10,1,12
2020/12/25 1:21,0.5,11,0.6,11,0.9,11
2020/12/25 1:22,0.5,11,0.5,11,0.8,13
2020/12/25 1:23,0.6,11,0.6,11,0.9,12
2020/12/25 1:24,0.6,11,0.6,11,1.3,11
2020/12/25 1:25,0.6,12,0.6,11,0.9,11
2020/12/25 1:26,0.6,12,0.7,11,0.6,12
2020/12/25 1:27,0.6,12,0.6,11,0.8,12
2020/12/25 1:28,0.6,12,0.6,12,1,13
2020/12/25 1:29,0.6,12,0.6,12,0.8,13
2020/12/25 1:30,0.6,12,0.6,12,0.5,13
2020/12/25 1:31,0.5,12,0.6,12,0.9,13
2020/12/25 1:32,0.6,13,0.6,12,1,14
2020/12/25 1:33,0.5,13,0.6,12,0.6,16
2020/12/25 1:34,0.5,13,0.5,12,0.8,15
2020/12/25 1:35,0.5,13,0.5,12,0.8,12
2020/12/25 1:36,0.5,13,0.5,12,0.9,12
2020/12/25 1:37,0.6,13,0.6,12,1.1,13
2020/12/25 1:38,0.6,13,0.6,12,1,13
2020/12/25 1:39,0.6,13,0.6,12,0.9,14
2020/12/25 1:40,0.6,13,0.6,12,1,12
2020/12/25 1:41,0.6,13,0.6,12,1.1,12
2020/12/25 1:42,0.6,13,0.6,13,1,11
2020/12/25 1:43,0.6,13,0.6,13,0.6,12
2020/12/25 1:44,0.6,12,0.6,13,0.5,13
2020/12/25 1:45,0.6,12,0.6,13,1.4,11
2020/12/25 1:46,0.7,12,0.7,12,1.5,11
2020/12/25 1:47,0.8,12,0.8,12,2.1,10
2020/12/25 1:48,0.8,12,0.8,12,2.1,11
2020/12/25 1:49,1,11,1,12,2.2,11
2020/12/25 1:50,1.1,11,1.1,11,2.1,12
2020/12/25 1:51,1.1,11,1.1,11,1.8,12
2020/12/25 1:52,1.2,11,1.2,11,2.7,10
2020/12/25 1:53,1.3,11,1.3,11,2.4,11
2020/12/25 1:54,1.5,11,1.5,11,1.9,10
2020/12/25 1:55,1.5,11,1.5,11,2,10
2020/12/25 1:56,1.5,11,1.5,11,1.8,10
2020/12/25 1:57,1.4,11,1.5,11,1.8,10
2020/12/25 1:58,1.4,11,1.4,11,1.4,10
2020/12/25 1:59,1.3,11,1.3,11,1.3,11
2020/12/25 2:00,1.2,11,1.2,11,1.3,10
2020/12/25 2:01,1.1,10,1.2,11,1.3,9
2020/12/25 2:02,1,10,1.1,11,1.1,9
2020/12/25 2:03,1,10,1,11,1.5,11
2020/12/25 2:04,1,10,1,11,1.6,11
2020/12/25 2:05,1,11,1,11,1.5,12
2020/12/25 2:06,1,11,1,11,1.4,12
2020/12/25 2:07,1,11,1,11,1.1,12
2020/12/25 2:08,0.9,11,1,11,1,12
2020/12/25 2:09,0.9,11,0.9,11,0.9,12
2020/12/25 2:10,0.9,11,0.9,11,0.6,12
2020/12/25 2:11,0.8,12,0.9,10,0.5,11
2020/12/25 2:12,0.8,12,0.8,10,1,10
2020/12/25 2:13,0.7,12,0.8,10,0.6,10
2020/12/25 2:14,0.6,12,0.7,10,0.8,13
2020/12/25 2:15,0.5,12,0.6,11,0.8,13
2020/12/25 2:16,0.4,12,0.5,11,0.4,13
2020/12/25 2:17,0.3,12,0.4,11,0.5,12
2020/12/25 2:18,0.3,13,0.3,11,0.4,15
2020/12/25 2:19,0.3,13,0.3,11,0.8,16
2020/12/25 2:20,0.3,14,0.3,11,0.8,1
2020/12/25 2:21,0.3,14,0.3,12,1.3,16
2020/12/25 2:22,0.3,15,0.3,12,0.8,1
2020/12/25 2:23,0.3,15,0.3,12,0.3,2
2020/12/25 2:24,0.3,16,0.3,12,1,1
2020/12/25 2:25,0.3,16,0.3,12,0.5,2
2020/12/25 2:26,0.3,1,0.3,12,0.4,16
2020/12/25 2:27,0.3,1,0.3,13,0.4,16
2020/12/25 2:28,0.3,1,0.3,13,0.3,14
2020/12/25 2:29,0.3,1,0.3,13,0.5,4
2020/12/25 2:30,0.3,1,0.3,14,0.5,16
2020/12/25 2:31,0.2,1,0.3,14,0.5,16
2020/12/25 2:32,0.2,1,0.2,15,0.1,16
2020/12/25 2:33,0.2,16,0.2,15,0,14
2020/12/25 2:34,0.1,16,0.2,16,0.5,12
2020/12/25 2:35,0.2,15,0.2,16,1.1,11
2020/12/25 2:36,0.2,14,0.2,1,0.9,12
2020/12/25 2:37,0.3,14,0.3,1,0.8,12
2020/12/25 2:38,0.3,14,0.3,1,0.6,14
2020/12/25 2:39,0.3,14,0.3,1,1.4,16
2020/12/25 2:40,0.4,14,0.4,14,1.4,16
2020/12/25 2:41,0.4,14,0.4,14,0.5,15
2020/12/25 2:42,0.4,13,0.4,14,0.1,13
2020/12/25 2:43,0.4,13,0.4,14,0,10
2020/12/25 2:44,0.4,13,0.4,14,0,9
2020/12/25 2:45,0.3,12,0.4,14,0,9
2020/12/25 2:46,0.3,12,0.3,14,0,10
2020/12/25 2:47,0.2,13,0.2,14,0.3,16
2020/12/25 2:48,0.2,13,0.2,14,0.1,16
2020/12/25 2:49,0.1,13,0.2,14,0.3,16
2020/12/25 2:50,0,13,0.1,14,0,16
2020/12/25 2:51,0,13,0,14,0.4,5
2020/12/25 2:52,0,12,0,13,0.3,8
2020/12/25 2:53,0,12,0,13,0.5,9
2020/12/25 2:54,0,12,0,13,0.1,9
2020/12/25 2:55,0,13,0,12,0.4,14
2020/12/25 2:56,0,14,0,12,0.1,14
2020/12/25 2:57,0,13,0,13,0.1,14
2020/12/25 2:58,0,13,0,13,0,14
2020/12/25 2:59,0,12,0,13,0,14
2020/12/25 3:00,0,12,0,13,0.3,14
2020/12/25 3:01,0.1,12,0.1,12,0.6,6
2020/12/25 3:02,0.1,12,0.1,12,1.1,8
2020/12/25 3:03,0.2,12,0.2,12,1.4,8
2020/12/25 3:04,0.3,12,0.3,12,2,9
2020/12/25 3:05,0.4,12,0.4,12,1.3,9
2020/12/25 3:06,0.4,11,0.4,12,1.9,9
2020/12/25 3:07,0.5,10,0.5,11,1.4,9
2020/12/25 3:08,0.6,10,0.6,10,1,10
2020/12/25 3:09,0.6,10,0.6,10,0.4,10
2020/12/25 3:10,0.6,10,0.6,10,0,10
2020/12/25 3:11,0.5,10,0.6,10,0,11
2020/12/25 3:12,0.5,10,0.5,10,0,11
2020/12/25 3:13,0.4,10,0.5,10,0.1,15
2020/12/25 3:14,0.3,11,0.4,10,0.5,15
2020/12/25 3:15,0.3,11,0.3,10,0.4,16
2020/12/25 3:16,0.2,12,0.3,10,0.8,16
2020/12/25 3:17,0.2,12,0.2,10,0.8,2
2020/12/25 3:18,0.1,13,0.2,10,0.3,4
2020/12/25 3:19,0.2,15,0.2,10,0.5,1
2020/12/25 3:20,0.2,16,0.2,10,1.1,1
2020/12/25 3:21,0.2,16,0.2,10,0.6,15
2020/12/25 3:22,0.3,1,0.3,10,1,1
2020/12/25 3:23,0.3,1,0.3,10,1.1,1
2020/12/25 3:24,0.4,1,0.4,1,1.4,2
2020/12/25 3:25,0.4,2,0.4,1,0.8,4
2020/12/25 3:26,0.4,2,0.4,1,0.9,2
2020/12/25 3:27,0.4,2,0.4,1,0.9,4
2020/12/25 3:28,0.4,2,0.4,1,0.6,4
2020/12/25 3:29,0.5,3,0.5,3,1,9
2020/12/25 3:30,0.4,3,0.5,3,1,10
2020/12/25 3:31,0.4,3,0.5,3,0.4,14
2020/12/25 3:32,0.4,4,0.4,3,0.3,12
2020/12/25 3:33,0.3,6,0.4,3,0.1,9
2020/12/25 3:34,0.3,8,0.3,3,0.3,8
2020/12/25 3:35,0.2,8,0.3,3,0.3,9
2020/12/25 3:36,0.2,9,0.2,3,0.6,8
2020/12/25 3:37,0.2,10,0.2,3,0.6,14
2020/12/25 3:38,0.2,10,0.2,3,0.6,13
2020/12/25 3:39,0.2,11,0.2,3,0.4,15
2020/12/25 3:40,0.2,11,0.2,3,0.8,11
2020/12/25 3:41,0.2,11,0.2,3,0.9,11
2020/12/25 3:42,0.3,11,0.3,4,1.3,11
2020/12/25 3:43,0.4,11,0.4,11,0.8,11
2020/12/25 3:44,0.4,11,0.4,11,1,10
2020/12/25 3:45,0.5,12,0.5,11,1.6,10
2020/12/25 3:46,0.6,12,0.6,12,1.6,10
2020/12/25 3:47,0.7,11,0.7,12,1.5,11
2020/12/25 3:48,0.8,11,0.8,11,1.9,11
2020/12/25 3:49,0.9,11,0.9,11,1.6,11
2020/12/25 3:50,1,11,1,11,1.6,12
2020/12/25 3:51,1,11,1,11,1.5,11
2020/12/25 3:52,1,11,1,11,0.9,14
2020/12/25 3:53,1,11,1,11,0.9,13
2020/12/25 3:54,1,12,1,11,1.4,12
2020/12/25 3:55,1,12,1,11,1.3,12
2020/12/25 3:56,0.9,12,1,11,0.8,15
2020/12/25 3:57,0.8,13,0.9,11,0.4,2
2020/12/25 3:58,0.7,14,0.8,11,1.4,2
2020/12/25 3:59,0.7,14,0.7,11,1,16
2020/12/25 4:00,0.6,15,0.7,11,0.8,4
2020/12/25 4:01,0.5,16,0.6,11,0.4,4
2020/12/25 4:02,0.5,1,0.5,11,0.9,16
2020/12/25 4:03,0.4,1,0.5,12,0.1,7
2020/12/25 4:04,0.4,1,0.4,12,0.6,13
2020/12/25 4:05,0.3,1,0.4,12,0.8,13
2020/12/25 4:06,0.3,1,0.3,12,0.4,12
2020/12/25 4:07,0.3,1,0.3,13,0.1,10
2020/12/25 4:08,0.2,3,0.3,14,0.3,8
2020/12/25 4:09,0.2,15,0.2,14,1.3,16
2020/12/25 4:10,0.2,10,0.2,15,1,8
2020/12/25 4:11,0.2,11,0.2,16,1,2
2020/12/25 4:12,0.3,10,0.3,1,1.3,1
2020/12/25 4:13,0.3,9,0.3,1,0.9,4
2020/12/25 4:14,0.3,7,0.3,1,0.5,5
2020/12/25 4:15,0.3,6,0.3,1,1,7
2020/12/25 4:16,0.3,6,0.3,1,1.3,7
2020/12/25 4:17,0.3,4,0.3,1,0.4,16
2020/12/25 4:18,0.4,4,0.4,4,1.8,10
2020/12/25 4:19,0.4,5,0.4,4,0.9,7
2020/12/25 4:20,0.4,5,0.4,4,1.3,7
2020/12/25 4:21,0.5,4,0.5,4,2.4,1
2020/12/25 4:22,0.6,4,0.6,4,2.4,16
2020/12/25 4:23,0.6,4,0.6,4,1,15
2020/12/25 4:24,0.6,3,0.6,4,0.8,1
2020/12/25 4:25,0.6,16,0.6,4,1,1
2020/12/25 4:26,0.6,16,0.6,4,0.9,15
2020/12/25 4:27,0.6,16,0.6,4,0.6,16
2020/12/25 4:28,0.6,16,0.6,4,1.5,7
2020/12/25 4:29,0.7,16,0.7,16,2.4,8
2020/12/25 4:30,0.7,14,0.7,16,1.3,9
2020/12/25 4:31,0.5,12,0.7,16,0.9,16
2020/12/25 4:32,0.4,12,0.5,16,1.4,16
2020/12/25 4:33,0.5,15,0.5,16,1.5,1
2020/12/25 4:34,0.6,3,0.6,16,1.4,3
2020/12/25 4:35,0.6,6,0.6,16,1.4,6
2020/12/25 4:36,0.7,7,0.7,16,2.1,8
2020/12/25 4:37,0.8,7,0.8,7,2.2,8
2020/12/25 4:38,0.8,8,0.8,7,1.6,16
2020/12/25 4:39,0.9,9,0.9,8,3.6,1
2020/12/25 4:40,1,1,1,16,2.1,16
2020/12/25 4:41,1,1,1,16,0.9,1
2020/12/25 4:42,1,2,1,16,0.6,9
2020/12/25 4:43,0.9,9,1,16,0.8,1
2020/12/25 4:44,0.8,12,0.9,16,0.5,1
2020/12/25 4:45,0.8,16,0.8,16,0.5,3
2020/12/25 4:46,0.6,2,0.7,16,0.5,3
2020/12/25 4:47,0.6,2,0.6,16,1.6,1
2020/12/25 4:48,0.6,2,0.6,16,1.6,2
2020/12/25 4:49,0.5,3,0.6,16,1.6,4
2020/12/25 4:50,0.4,2,0.5,1,0.8,13
2020/12/25 4:51,0.4,2,0.4,1,1,16
2020/12/25 4:52,0.5,2,0.5,2,1.6,16
2020/12/25 4:53,0.5,2,0.5,10,1.1,4
2020/12/25 4:54,0.6,2,0.6,12,1.8,13
2020/12/25 4:55,0.6,2,0.6,16,1.6,2
2020/12/25 4:56,0.8,2,0.8,2,1.9,4
2020/12/25 4:57,0.8,2,0.8,2,1.5,2
2020/12/25 4:58,0.7,2,0.8,2,1.5,6
2020/12/25 4:59,0.8,2,0.8,2,1.8,3
2020/12/25 5:00,0.8,3,0.8,2,1.5,3
2020/12/25 5:01,0.9,3,0.9,3,1.5,6
2020/12/25 5:02,1,4,1,4,1.9,5
2020/12/25 5:03,1.1,4,1.1,4,1.8,5
2020/12/25 5:04,1.2,4,1.2,4,2.1,4
2020/12/25 5:05,1.2,4,1.3,4,2.1,5
2020/12/25 5:06,1.1,4,1.2,4,0.9,5
2020/12/25 5:07,1.1,4,1.1,4,1,4
2020/12/25 5:08,1.1,4,1.1,4,1.3,6
2020/12/25 5:09,1,4,1.1,4,0.6,3
2020/12/25 5:10,0.9,5,1,4,1.3,9
2020/12/25 5:11,0.9,5,0.9,4,1,9
2020/12/25 5:12,0.7,5,0.9,4,0.6,8
2020/12/25 5:13,0.6,6,0.7,4,0.3,10
2020/12/25 5:14,0.4,6,0.6,4,0.1,5
2020/12/25 5:15,0.3,6,0.4,4,0.1,7
2020/12/25 5:16,0.3,7,0.3,4,0.3,16
2020/12/25 5:17,0.2,7,0.3,4,0.3,10
2020/12/25 5:18,0.2,7,0.2,4,0.6,10
2020/12/25 5:19,0.2,8,0.2,4,0.4,10
2020/12/25 5:20,0.1,8,0.2,5,0.5,9
2020/12/25 5:21,0.1,8,0.1,5,0.4,9
2020/12/25 5:22,0.1,8,0.1,5,0.6,14
2020/12/25 5:23,0.2,9,0.2,6,1.6,15
2020/12/25 5:24,0.3,10,0.3,6,1,16
2020/12/25 5:25,0.4,10,0.4,10,1.1,2
2020/12/25 5:26,0.4,13,0.4,10,1.4,2
2020/12/25 5:27,0.4,12,0.4,10,0.3,2
2020/12/25 5:28,0.4,14,0.4,10,0.8,1
2020/12/25 5:29,0.4,16,0.4,10,0.9,16
2020/12/25 5:30,0.4,16,0.5,16,0.8,12
2020/12/25 5:31,0.5,16,0.5,16,1,16
2020/12/25 5:32,0.5,1,0.5,16,0.9,1
2020/12/25 5:33,0.4,1,0.5,16,0.4,1
2020/12/25 5:34,0.3,1,0.4,16,0.3,16
2020/12/25 5:35,0.2,2,0.3,16,0.1,9
2020/12/25 5:36,0.2,1,0.2,16,1,1
2020/12/25 5:37,0.2,2,0.2,16,1,1
2020/12/25 5:38,0.3,3,0.3,16,1.8,8
2020/12/25 5:39,0.4,5,0.4,16,1.8,10
2020/12/25 5:40,0.5,6,0.5,16,1.8,8
2020/12/25 5:41,0.5,7,0.5,16,1.9,9
2020/12/25 5:42,0.7,8,0.7,8,5,12
2020/12/25 5:43,0.9,8,0.9,8,4.1,13
2020/12/25 5:44,1,9,1,9,1.4,7
2020/12/25 5:45,1.2,10,1.2,10,4.5,14
2020/12/25 5:46,1.4,10,1.4,10,4.5,14
2020/12/25 5:47,1.6,10,1.6,10,2.5,12
2020/12/25 5:48,1.6,11,1.6,10,3.2,10
2020/12/25 5:49,1.7,11,1.7,11,3,13
2020/12/25 5:50,1.8,12,1.8,11,3.8,12
2020/12/25 5:51,1.9,12,1.9,12,3.8,12
2020/12/25 5:52,1.9,12,2,12,5.5,16
2020/12/25 5:53,1.8,12,1.9,12,2.5,2
2020/12/25 5:54,1.8,12,1.8,12,1.4,10
2020/12/25 5:55,1.7,12,1.8,12,1.3,9
2020/12/25 5:56,1.6,12,1.7,12,3.3,10
2020/12/25 5:57,1.7,11,1.7,12,4.1,9
2020/12/25 5:58,1.8,11,1.8,12,3,9
2020/12/25 5:59,1.7,11,1.8,12,2.5,10
2020/12/25 6:00,1.7,10,1.8,12,3.1,9
2020/12/25 6:01,1.8,11,1.8,12,3.2,12
2020/12/25 6:02,1.7,11,1.8,12,3.1,13
2020/12/25 6:03,2,11,2,11,8.5,15
2020/12/25 6:04,2.2,11,2.2,11,4.3,13
2020/12/25 6:05,2.3,11,2.3,11,1.9,14
2020/12/25 6:06,2.2,12,2.3,11,2.1,12
2020/12/25 6:07,2.2,12,2.2,11,6.2,16
2020/12/25 6:08,2.3,12,2.3,11,3.5,13
2020/12/25 6:09,2.4,13,2.4,13,4.2,16
2020/12/25 6:10,2.5,14,2.5,13,6.1,15
2020/12/25 6:11,2.6,14,2.6,14,4.5,15
2020/12/25 6:12,2.7,14,2.7,14,6.3,14
2020/12/25 6:13,2.5,14,2.7,14,5,11
2020/12/25 6:14,2.4,14,2.5,14,4.5,16
2020/12/25 6:15,2.6,14,2.6,14,6.2,14
2020/12/25 6:16,2.8,14,2.8,14,7.7,12
2020/12/25 6:17,2.9,14,2.9,14,8.5,15
2020/12/25 6:18,2.9,14,2.9,14,5.2,1
2020/12/25 6:19,3,14,3,14,6,13
2020/12/25 6:20,3,13,3,14,4.4,14
2020/12/25 6:21,3,13,3,14,4.9,13
2020/12/25 6:22,3,13,3,14,6.5,13
2020/12/25 6:23,3.1,13,3.1,13,5.1,13
2020/12/25 6:24,3.3,13,3.3,13,7.2,14
2020/12/25 6:25,3.4,13,3.4,13,6.9,13
2020/12/25 6:26,3.4,13,3.4,13,7,14
2020/12/25 6:27,3.4,13,3.4,13,8.4,15
2020/12/25 6:28,3.4,14,3.4,13,5.8,15
2020/12/25 6:29,3.3,14,3.4,13,5.6,14
2020/12/25 6:30,3.2,14,3.3,13,5,12
2020/12/25 6:31,3.1,14,3.2,13,3.3,12
2020/12/25 6:32,3.2,14,3.2,13,5.8,13
2020/12/25 6:33,3.1,14,3.2,13,4.3,12
2020/12/25 6:34,2.8,13,3.1,13,1.9,10
2020/12/25 6:35,2.6,13,2.8,13,2.7,10
2020/12/25 6:36,2.5,13,2.6,13,3,10
2020/12/25 6:37,2.3,12,2.4,13,3.2,11
2020/12/25 6:38,2.2,12,2.3,14,3.1,13
2020/12/25 6:39,2.1,12,2.2,14,2.5,13
2020/12/25 6:40,2.1,12,2.1,14,3.7,13
2020/12/25 6:41,2,12,2.1,14,2.7,13
2020/12/25 6:42,1.7,12,2,14,2,13
2020/12/25 6:43,1.6,12,1.7,14,2.2,13
2020/12/25 6:44,1.7,12,1.7,13,2.1,14
2020/12/25 6:45,1.6,12,1.7,13,2.2,9
2020/12/25 6:46,1.6,12,1.6,13,2.9,12
2020/12/25 6:47,1.5,12,1.6,12,2.4,13
2020/12/25 6:48,1.5,12,1.6,12,2.1,13
2020/12/25 6:49,1.5,12,1.5,12,1.3,12
2020/12/25 6:50,1.4,12,1.5,12,2.1,11
2020/12/25 6:51,1.4,12,1.4,12,2.4,12
2020/12/25 6:52,1.4,12,1.4,12,1.9,10
2020/12/25 6:53,1.4,12,1.4,12,2.2,12
2020/12/25 6:54,1.5,12,1.5,12,2.2,13
2020/12/25 6:55,1.5,12,1.5,12,2,12
2020/12/25 6:56,1.5,12,1.5,12,1.9,13
2020/12/25 6:57,1.5,12,1.5,12,1.8,14
2020/12/25 6:58,1.5,12,1.5,12,3.1,10
2020/12/25 6:59,1.6,12,1.6,12,2.5,11
2020/12/25 7:00,1.7,12,1.7,12,2.5,13
2020/12/25 7:01,1.6,12,1.7,12,2.1,13
2020/12/25 7:02,1.7,12,1.7,12,2.4,12
2020/12/25 7:03,1.7,12,1.7,12,2.2,13
2020/12/25 7:04,1.6,12,1.7,12,2.1,14
2020/12/25 7:05,1.6,12,1.6,12,2.5,13
2020/12/25 7:06,1.7,13,1.7,12,2.7,13
2020/12/25 7:07,1.6,13,1.7,12,1.5,13
2020/12/25 7:08,1.6,13,1.6,12,1.5,11
2020/12/25 7:09,1.5,13,1.6,12,1.9,14
2020/12/25 7:10,1.4,12,1.5,12,1.5,12
2020/12/25 7:11,1.5,12,1.5,12,2.1,12
2020/12/25 7:12,1.5,12,1.5,12,2.7,12
2020/12/25 7:13,1.6,12,1.6,12,3,12
2020/12/25 7:14,1.7,12,1.7,12,3,12
2020/12/25 7:15,1.7,12,1.7,12,2.9,12
2020/12/25 7:16,1.7,12,1.7,13,3.7,12
2020/12/25 7:17,1.9,12,1.9,12,3.3,12
2020/12/25 7:18,2,12,2,12,3.2,10
2020/12/25 7:19,2.2,12,2.2,12,3.7,11
2020/12/25 7:20,2.3,12,2.3,12,3.2,12
2020/12/25 7:21,2.3,12,2.3,12,2.7,10
2020/12/25 7:22,2.2,12,2.3,12,2.7,13
2020/12/25 7:23,2.1,12,2.2,12,2,12
2020/12/25 7:24,2,12,2.1,12,2.6,13
2020/12/25 7:25,2.1,12,2.1,12,3.5,12
2020/12/25 7:26,2.1,12,2.1,12,3.2,10
2020/12/25 7:27,2,12,2.1,12,3.7,11
2020/12/25 7:28,2.1,12,2.1,12,3,12
2020/12/25 7:29,2,12,2.1,12,4.5,12
2020/12/25 7:30,2,12,2,12,3.9,12
2020/12/25 7:31,2,12,2,12,3.8,16
2020/12/25 7:32,2.1,12,2.1,12,3.8,10
2020/12/25 7:33,2.3,12,2.3,12,5,10
2020/12/25 7:34,2.4,12,2.4,12,7.2,12
2020/12/25 7:35,2.8,12,2.8,12,9.7,12
2020/12/25 7:36,2.9,13,2.9,12,5.1,13
2020/12/25 7:37,2.8,13,2.9,12,3,16
2020/12/25 7:38,2.8,13,2.8,12,3.9,13
2020/12/25 7:39,2.8,13,2.8,12,4.9,12
2020/12/25 7:40,2.9,13,2.9,12,4.2,11
2020/12/25 7:41,2.9,12,2.9,12,5.1,9
2020/12/25 7:42,2.9,12,2.9,12,3.8,10
2020/12/25 7:43,2.7,12,2.9,12,2.9,11
2020/12/25 7:44,2.7,12,2.8,12,2.6,12
2020/12/25 7:45,2.3,12,2.7,12,3.9,12
2020/12/25 7:46,2.2,12,2.3,13,4.4,12
2020/12/25 7:47,2.5,12,2.5,13,8.7,12
2020/12/25 7:48,2.5,12,2.6,13,5.7,15
2020/12/25 7:49,2.5,12,2.6,13,5,16
2020/12/25 7:50,2.5,12,2.5,13,5.1,15
2020/12/25 7:51,2.5,13,2.5,12,3,13
2020/12/25 7:52,2.3,13,2.4,12,1.3,9
2020/12/25 7:53,2.2,13,2.3,12,2.5,9
2020/12/25 7:54,2.3,12,2.3,12,3.6,10
2020/12/25 7:55,2.3,12,2.3,12,3.2,11
2020/12/25 7:56,2.1,12,2.3,12,2.6,11
2020/12/25 7:57,1.8,12,2.1,12,2.1,10
2020/12/25 7:58,1.8,11,1.8,12,2.5,10
2020/12/25 7:59,1.8,11,1.8,12,2.5,10
2020/12/25 8:00,1.7,11,1.8,12,2.7,10
2020/12/25 8:01,1.6,10,1.7,13,2.1,10
2020/12/25 8:02,1.8,11,1.8,13,3.1,11
2020/12/25 8:03,1.9,11,1.9,13,2.6,12
2020/12/25 8:04,1.8,11,1.9,12,2,12
2020/12/25 8:05,1.7,11,1.8,12,1.9,7
2020/12/25 8:06,1.7,10,1.7,12,2.5,9
2020/12/25 8:07,1.6,10,1.7,11,2,10
2020/12/25 8:08,1.7,10,1.7,11,3.5,10
2020/12/25 8:09,1.7,10,1.8,11,3.3,10
2020/12/25 8:10,1.7,11,1.7,11,2.9,13
2020/12/25 8:11,1.6,11,1.7,11,0.9,11
2020/12/25 8:12,1.5,11,1.6,11,2.6,10
2020/12/25 8:13,1.4,10,1.5,11,2.9,9
2020/12/25 8:14,1.5,10,1.5,11,3.9,9
2020/12/25 8:15,1.6,11,1.6,10,2.1,10
2020/12/25 8:16,1.6,11,1.6,10,3.8,9
2020/12/25 8:17,1.7,11,1.7,10,3.5,9
2020/12/25 8:18,1.6,10,1.7,10,3.1,10
2020/12/25 8:19,1.6,10,1.6,10,3.2,9
2020/12/25 8:20,1.8,10,1.8,10,4.5,13
2020/12/25 8:21,2,10,2,10,3.6,11
2020/12/25 8:22,1.9,10,2,10,3.9,9
2020/12/25 8:23,2,10,2,10,2.9,10
2020/12/25 8:24,1.9,10,2,10,2.7,9
2020/12/25 8:25,1.9,10,1.9,10,3.6,9
2020/12/25 8:26,2,10,2,10,5.8,9
2020/12/25 8:27,2.1,10,2.1,10,5.1,10
2020/12/25 8:28,2.2,10,2.2,10,3.7,11
2020/12/25 8:29,2.2,10,2.2,10,4.4,9
2020/12/25 8:30,2.1,10,2.3,10,4.3,10
2020/12/25 8:31,2,10,2.1,10,2.2,11
2020/12/25 8:32,2.1,10,2.1,10,4.4,8
2020/12/25 8:33,2.2,10,2.2,10,4.3,12
2020/12/25 8:34,2.3,11,2.3,10,3.7,12
2020/12/25 8:35,2.3,11,2.3,10,3.6,9
2020/12/25 8:36,2.2,11,2.3,10,3.3,11
2020/12/25 8:37,2.1,11,2.1,10,4.3,11
2020/12/25 8:38,2.1,11,2.2,10,4.2,10
2020/12/25 8:39,2,11,2.1,10,2.6,8
2020/12/25 8:40,2,11,2,10,4.8,9
2020/12/25 8:41,2.2,11,2.2,10,4.2,11
2020/12/25 8:42,2.2,11,2.2,10,3.1,12
2020/12/25 8:43,2.1,11,2.2,10,2.9,13
2020/12/25 8:44,2.2,11,2.2,11,6.3,10
2020/12/25 8:45,2.3,10,2.3,11,4.1,9
2020/12/25 8:46,2.2,10,2.3,11,3.1,8
2020/12/25 8:47,2.3,10,2.3,11,5.7,9
2020/12/25 8:48,2.3,10,2.3,11,5.8,10
2020/12/25 8:49,2.4,10,2.4,10,4.3,10
2020/12/25 8:50,2.5,11,2.5,10,4.1,11
2020/12/25 8:51,2.4,10,2.5,10,3.1,11
2020/12/25 8:52,2.5,10,2.5,10,5.1,9
2020/12/25 8:53,2.5,10,2.5,10,4.3,9
2020/12/25 8:54,2.4,10,2.5,10,4.5,8
2020/12/25 8:55,2.4,10,2.4,10,4.8,8
2020/12/25 8:56,2.5,10,2.5,10,3.6,9
2020/12/25 8:57,2.4,10,2.5,10,5.2,9
2020/12/25 8:58,2.6,10,2.6,10,6,10
2020/12/25 8:59,2.5,10,2.5,10,5.2,12
2020/12/25 9:00,2.5,10,2.6,10,4.1,13
2020/12/25 9:01,2.7,10,2.7,10,5.1,9
2020/12/25 9:02,2.7,10,2.7,10,5.6,9
2020/12/25 9:03,2.8,10,2.8,10,4.7,10
2020/12/25 9:04,2.9,10,2.9,10,5.2,11
2020/12/25 9:05,3,10,3,10,4.4,11
2020/12/25 9:06,3.1,10,3.1,10,4.7,11
2020/12/25 9:07,3.1,10,3.1,10,5.7,9
2020/12/25 9:08,3,10,3.2,10,5.2,9
2020/12/25 9:09,2.9,10,3,10,2.9,8
2020/12/25 9:10,2.8,10,2.8,10,3.5,9
2020/12/25 9:11,2.7,10,2.8,10,5,11
2020/12/25 9:12,2.7,10,2.8,10,5.6,12
2020/12/25 9:13,2.7,10,2.7,10,7.5,10
2020/12/25 9:14,2.8,10,2.8,10,6,10
2020/12/25 9:15,2.9,10,2.9,10,6,9
2020/12/25 9:16,2.8,10,2.9,10,6.2,9
2020/12/25 9:17,2.8,10,2.8,10,3.9,9
2020/12/25 9:18,2.7,10,2.8,10,3.6,8
2020/12/25 9:19,2.8,10,2.8,10,3.5,10
2020/12/25 9:20,2.9,10,2.9,10,5.1,10
2020/12/25 9:21,3,10,3,10,4.9,10
2020/12/25 9:22,3,10,3,10,6.5,9
2020/12/25 9:23,2.9,10,3,10,5.6,11
2020/12/25 9:24,2.8,10,2.9,10,6.8,12
2020/12/25 9:25,2.8,10,2.9,10,5,11
2020/12/25 9:26,2.7,10,2.8,10,4.9,10
2020/12/25 9:27,3,10,3,10,9.3,9
2020/12/25 9:28,3.2,10,3.2,10,6.7,11
2020/12/25 9:29,3.4,11,3.4,11,6.8,9
2020/12/25 9:30,3.5,11,3.5,11,6.9,10
2020/12/25 9:31,3.4,11,3.4,11,4.8,9
2020/12/25 9:32,3.2,11,3.4,11,3.6,8
2020/12/25 9:33,3.1,11,3.2,11,5,10
2020/12/25 9:34,3.3,10,3.3,11,7,9
2020/12/25 9:35,3.3,10,3.3,11,6,9
2020/12/25 9:36,3.5,10,3.5,11,8.4,8
2020/12/25 9:37,3.4,10,3.6,10,6.7,9
2020/12/25 9:38,3.5,10,3.5,10,7.5,9
2020/12/25 9:39,3.3,10,3.5,10,4.7,9
2020/12/25 9:40,3.1,10,3.3,10,3.7,12
2020/12/25 9:41,3.2,10,3.2,10,5.8,11
2020/12/25 9:42,3.4,10,3.4,10,8.6,10
2020/12/25 9:43,3.8,10,3.8,10,10.8,10
2020/12/25 9:44,3.8,10,3.8,10,7.2,12
2020/12/25 9:45,3.7,11,3.8,10,5.7,10
2020/12/25 9:46,3.5,11,3.7,10,4.7,13
2020/12/25 9:47,3.5,11,3.5,10,10.2,12
2020/12/25 9:48,3.6,11,3.6,10,12.7,9
2020/12/25 9:49,4,11,4,11,9.2,12
2020/12/25 9:50,4.4,11,4.4,11,7.6,12
2020/12/25 9:51,4.6,11,4.6,11,7.8,10
2020/12/25 9:52,4.5,12,4.7,11,7.1,10
2020/12/25 9:53,4.2,12,4.5,11,5,8
2020/12/25 9:54,4.1,12,4.1,11,7.7,15
2020/12/25 9:55,4.3,12,4.3,11,5.6,10
2020/12/25 9:56,4.4,12,4.4,11,7.5,10
2020/12/25 9:57,4.4,12,4.4,11,6.3,11
2020/12/25 9:58,4.1,12,4.3,11,8.3,11
2020/12/25 9:59,3.7,12,4,11,6.7,10
2020/12/25 10:00,3.4,11,3.7,11,3.8,10
2020/12/25 10:01,3.3,11,3.4,11,9.9,10
2020/12/25 10:02,3.4,11,3.4,12,7.8,11
2020/12/25 10:03,3.5,11,3.5,12,8.1,10
2020/12/25 10:04,3.7,11,3.7,12,9.8,9
2020/12/25 10:05,3.6,11,3.7,12,7.5,12
2020/12/25 10:06,3.7,11,3.7,12,7.8,11
2020/12/25 10:07,3.8,11,3.9,12,7,10
2020/12/25 10:08,3.7,11,3.9,12,6.8,10
2020/12/25 10:09,3.9,11,3.9,11,8.5,12
2020/12/25 10:10,4,11,4.1,11,7.2,12
2020/12/25 10:11,4,11,4.1,11,7,11
2020/12/25 10:12,3.8,11,3.9,11,5.4,9
2020/12/25 10:13,3.7,11,3.8,11,6.3,9
2020/12/25 10:14,3.6,11,3.7,11,6.8,9
2020/12/25 10:15,3.6,11,3.6,11,9.2,9
2020/12/25 10:16,3.4,11,3.6,11,5.4,12
2020/12/25 10:17,3.5,11,3.5,11,9.1,10
2020/12/25 10:18,3.6,11,3.6,11,5.6,10
2020/12/25 10:19,3.6,11,3.6,11,7.2,9
2020/12/25 10:20,3.7,11,3.7,11,8.9,10
2020/12/25 10:21,3.9,11,3.9,11,7.9,9
2020/12/25 10:22,4.2,11,4.2,11,8.1,9
2020/12/25 10:23,4.3,11,4.3,11,8.2,12
2020/12/25 10:24,4.1,11,4.3,11,3.7,10
2020/12/25 10:25,3.8,11,4.1,11,3.9,10
2020/12/25 10:26,3.9,11,3.9,11,6.1,10
2020/12/25 10:27,3.9,11,4,11,8.2,9
2020/12/25 10:28,4.1,10,4.1,11,10.8,10
2020/12/25 10:29,4.1,11,4.2,11,10.2,10
2020/12/25 10:30,3.9,11,4.1,11,6,9
2020/12/25 10:31,3.7,11,3.8,11,7.9,11
2020/12/25 10:32,3.8,11,3.8,11,9.1,10
2020/12/25 10:33,3.7,10,3.7,11,9.4,10
2020/12/25 10:34,3.8,10,3.8,10,7.7,10
2020/12/25 10:35,4.2,10,4.2,10,8.2,10
2020/12/25 10:36,4,10,4.2,10,3.5,12
2020/12/25 10:37,3.8,10,3.9,10,4.8,10
2020/12/25 10:38,3.4,10,3.7,10,4.7,11
2020/12/25 10:39,3.2,10,3.4,10,4.8,12
2020/12/25 10:40,3.1,10,3.2,10,4.5,10
2020/12/25 10:41,3.2,10,3.2,10,6.4,11
2020/12/25 10:42,3,10,3.2,10,6.1,9
2020/12/25 10:43,3,10,3,10,7.2,10
2020/12/25 10:44,3.2,10,3.2,10,7.7,10
2020/12/25 10:45,3.1,10,3.2,10,6.8,9
2020/12/25 10:46,3.3,10,3.3,10,5.2,12
2020/12/25 10:47,3.4,10,3.4,10,5.8,10